Time,TemperatureF,DewpointF,PressureIn,WindDirection,WindDirectionDegrees,WindSpeedMPH,WindSpeedGustMPH,Humidity,HourlyPrecipIn,Conditions,Clouds,dailyrainin,SoftwareType,DateUTC
2013-02-14 00:03:00,38.0,36.0,30.03,NNW,344,0.0,-999.0,93,-99.99,,,0.05,weatherlink.com 1.10,2013-02-14 06:03:00,
2013-02-14 00:18:00,38.2,36.0,30.03,NNW,344,0.0,-999.0,92,-99.99,,,0.05,weatherlink.com 1.10,2013-02-14 06:18:00,
2013-02-14 00:33:00,38.3,36.0,30.03,NNW,344,0.0,-999.0,92,-99.99,,,0.05,weatherlink.com 1.10,2013-02-14 06:33:00,
2013-02-14 00:48:00,38.5,36.0,30.04,NNW,344,0.0,-999.0,92,-99.99,,,0.05,weatherlink.com 1.10,2013-02-14 06:48:00,
2013-02-14 01:03:00,38.6,36.0,30.04,NNW,344,0.0,-999.0,91,-99.99,,,0.05,weatherlink.com 1.10,2013-02-14 07:03:00,
2013-02-14 01:18:00,38.7,36.0,30.04,NNW,344,0.0,-999.0,91,-99.99,,,0.05,weatherlink.com 1.10,2013-02-14 07:18:00,
2013-02-14 01:33:00,38.8,36.0,30.04,NNW,344,0.0,-999.0,91,-99.99,,,0.00,weatherlink.com 1.10,2013-02-14 07:33:00,
2013-02-14 01:48:00,38.9,37.0,30.04,West,263,0.0,-999.0,91,-99.99,,,0.00,weatherlink.com 1.10,2013-02-14 07:48:00,
2013-02-14 02:03:00,39.3,36.0,30.04,North,355,1.0,-999.0,88,-99.99,,,0.00,weatherlink.com 1.10,2013-02-14 08:03:00,
2013-02-14 02:18:00,39.9,36.0,30.04,NW,307,1.0,-999.0,86,-99.99,,,0.00,weatherlink.com 1.10,2013-02-14 08:18:00,
2013-02-14 02:33:00,40.1,36.0,30.04,WNW,300,0.0,-999.0,85,-99.99,,,0.00,weatherlink.com 1.10,2013-02-14 08:33:00,
2013-02-14 02:48:00,40.0,36.0,30.04,NW,306,0.0,-999.0,85,-99.99,,,0.00,weatherlink.com 1.10,2013-02-14 08:48:00,
2013-02-14 03:03:00,40.1,36.0,30.04,NW,306,0.0,-999.0,85,-99.99,,,0.00,weatherlink.com 1.10,2013-02-14 09:03:00,
2013-02-14 03:18:00,40.1,36.0,30.04,WNW,296,0.0,-999.0,84,-99.99,,,0.00,weatherlink.com 1.10,2013-02-14 09:18:00,
2013-02-14 03:34:00,40.1,36.0,30.03,WNW,296,0.0,-999.0,84,-99.99,,,0.00,weatherlink.com 1.10,2013-02-14 09:34:00,
2013-02-14 03:49:00,40.1,35.0,30.04,NNW,334,0.0,-999.0,83,-99.99,,,0.00,weatherlink.com 1.10,2013-02-14 09:49:00,
2013-02-14 04:04:00,40.1,35.0,30.04,NNW,334,0.0,-999.0,83,-99.99,,,0.00,weatherlink.com 1.10,2013-02-14 10:04:00,
2013-02-14 04:18:00,40.1,35.0,30.04,NNW,334,0.0,-999.0,83,-99.99,,,0.00,weatherlink.com 1.10,2013-02-14 10:18:00,
2013-02-14 04:33:00,39.9,36.0,30.05,NNW,334,0.0,-999.0,85,-99.99,,,0.00,weatherlink.com 1.10,2013-02-14 10:33:00,
2013-02-14 04:48:00,39.7,37.0,30.05,NNW,334,0.0,-999.0,88,-99.99,,,0.00,weatherlink.com 1.10,2013-02-14 10:48:00,
2013-02-14 05:18:00,39.3,36.0,30.06,NNW,334,0.0,-999.0,88,-99.99,,,0.00,weatherlink.com 1.10,2013-02-14 11:18:00,
2013-02-14 05:33:00,39.2,36.0,30.06,NNW,348,0.0,-999.0,89,-99.99,,,0.00,weatherlink.com 1.10,2013-02-14 11:33:00,
2013-02-14 05:49:00,38.9,36.0,30.07,NNW,348,0.0,-999.0,89,-99.99,,,0.00,weatherlink.com 1.10,2013-02-14 11:49:00,
2013-02-14 06:03:00,38.3,36.0,30.08,NNW,348,0.0,-999.0,90,-99.99,,,0.00,weatherlink.com 1.10,2013-02-14 12:03:00,
2013-02-14 06:18:00,37.9,35.0,30.08,NNW,348,0.0,-999.0,90,-99.99,,,0.00,weatherlink.com 1.10,2013-02-14 12:18:00,
2013-02-14 06:34:00,37.6,35.0,30.09,NNW,348,0.0,-999.0,91,-99.99,,,0.00,weatherlink.com 1.10,2013-02-14 12:34:00,
2013-02-14 06:49:00,37.2,35.0,30.09,NNW,348,0.0,-999.0,91,-99.99,,,0.00,weatherlink.com 1.10,2013-02-14 12:49:00,
2013-02-14 07:04:00,36.7,34.0,30.09,NNW,348,0.0,-999.0,91,-99.99,,,0.00,weatherlink.com 1.10,2013-02-14 13:04:00,
2013-02-14 07:19:00,36.5,34.0,30.09,NNW,348,0.0,-999.0,91,-99.99,,,0.00,weatherlink.com 1.10,2013-02-14 13:19:00,
2013-02-14 07:34:00,36.7,35.0,30.10,NNW,348,0.0,-999.0,92,-99.99,,,0.00,weatherlink.com 1.10,2013-02-14 13:34:00,
2013-02-14 07:49:00,37.7,36.0,30.10,NNW,348,1.0,-999.0,93,-99.99,,,0.00,weatherlink.com 1.10,2013-02-14 13:49:00,
2013-02-14 08:04:00,39.5,36.0,30.09,NNW,348,0.0,-999.0,88,-99.99,,,0.00,weatherlink.com 1.10,2013-02-14 14:04:00,
2013-02-14 08:19:00,41.4,37.0,30.09,NNW,348,1.0,-999.0,85,-99.99,,,0.00,weatherlink.com 1.10,2013-02-14 14:19:00,
2013-02-14 08:34:00,42.3,37.0,30.09,NNW,348,0.0,-999.0,81,-99.99,,,0.00,weatherlink.com 1.10,2013-02-14 14:34:00,
2013-02-14 08:49:00,44.0,37.0,30.10,ENE,63,0.0,-999.0,76,-99.99,,,0.00,weatherlink.com 1.10,2013-02-14 14:49:00,
2013-02-14 09:04:00,45.0,37.0,30.09,ENE,63,0.0,-999.0,74,-99.99,,,0.00,weatherlink.com 1.10,2013-02-14 15:04:00,
2013-02-14 09:19:00,45.7,37.0,30.09,NNE,26,0.0,-999.0,72,-99.99,,,0.00,weatherlink.com 1.10,2013-02-14 15:19:00,
2013-02-14 09:34:00,46.1,37.0,30.10,NNE,30,2.0,-999.0,71,-99.99,,,0.00,weatherlink.com 1.10,2013-02-14 15:34:00,
2013-02-14 09:49:00,47.0,38.0,30.11,East,98,4.0,-999.0,70,-99.99,,,0.00,weatherlink.com 1.10,2013-02-14 15:49:00,
2013-02-14 10:04:00,48.3,38.0,30.12,SE,146,5.0,-999.0,67,-99.99,,,0.00,weatherlink.com 1.10,2013-02-14 16:04:00,
2013-02-14 10:19:00,47.4,38.0,30.12,ENE,61,0.0,-999.0,69,-99.99,,,0.00,weatherlink.com 1.10,2013-02-14 16:19:00,
2013-02-14 10:34:00,48.1,38.0,30.11,East,98,5.0,-999.0,69,-99.99,,,0.00,weatherlink.com 1.10,2013-02-14 16:34:00,
2013-02-14 10:49:00,49.9,38.0,30.10,WNW,288,0.0,-999.0,65,-99.99,,,0.00,weatherlink.com 1.10,2013-02-14 16:49:00,
2013-02-14 11:04:00,50.5,39.0,30.09,South,170,2.0,-999.0,64,-99.99,,,0.00,weatherlink.com 1.10,2013-02-14 17:04:00,
2013-02-14 11:19:00,50.8,38.0,30.09,West,265,2.0,-999.0,63,-99.99,,,0.00,weatherlink.com 1.10,2013-02-14 17:19:00,
2013-02-14 11:34:00,50.6,38.0,30.09,NNW,335,1.0,-999.0,63,-99.99,,,0.00,weatherlink.com 1.10,2013-02-14 17:34:00,
2013-02-14 11:49:00,50.5,38.0,30.09,West,280,4.0,-999.0,63,-99.99,,,0.00,weatherlink.com 1.10,2013-02-14 17:49:00,
2013-02-14 12:04:00,51.1,38.0,30.08,West,280,0.0,-999.0,62,-99.99,,,0.00,weatherlink.com 1.10,2013-02-14 18:04:00,
2013-02-14 12:19:00,51.5,39.0,30.08,WSW,248,0.0,-999.0,62,-99.99,,,0.00,weatherlink.com 1.10,2013-02-14 18:19:00,
2013-02-14 12:34:00,51.4,39.0,30.08,SSE,150,0.0,-999.0,62,-99.99,,,0.00,weatherlink.com 1.10,2013-02-14 18:34:00,
2013-02-14 12:49:00,52.6,39.0,30.07,WSW,244,3.0,-999.0,61,-99.99,,,0.00,weatherlink.com 1.10,2013-02-14 18:49:00,
2013-02-14 13:04:00,53.6,39.0,30.06,SSE,148,4.0,-999.0,58,-99.99,,,0.00,weatherlink.com 1.10,2013-02-14 19:04:00,
2013-02-14 13:19:00,53.4,39.0,30.06,East,97,4.0,-999.0,59,-99.99,,,0.00,weatherlink.com 1.10,2013-02-14 19:19:00,
2013-02-14 13:34:00,54.7,39.0,30.05,South,169,2.0,-999.0,56,-99.99,,,0.00,weatherlink.com 1.10,2013-02-14 19:34:00,
2013-02-14 13:50:00,55.5,40.0,30.06,SSE,165,4.0,-999.0,56,-99.99,,,0.00,weatherlink.com 1.10,2013-02-14 19:50:00,
2013-02-14 14:05:00,54.8,39.0,30.06,South,178,0.0,-999.0,56,-99.99,,,0.00,weatherlink.com 1.10,2013-02-14 20:05:00,
2013-02-14 14:20:00,54.5,38.0,30.05,SSW,198,0.0,-999.0,55,-99.99,,,0.00,weatherlink.com 1.10,2013-02-14 20:20:00,
2013-02-14 14:35:00,54.5,38.0,30.05,WSW,246,1.0,-999.0,55,-99.99,,,0.00,weatherlink.com 1.10,2013-02-14 20:35:00,
2013-02-14 14:50:00,54.5,37.0,30.04,South,180,2.0,-999.0,53,-99.99,,,0.00,weatherlink.com 1.10,2013-02-14 20:50:00,
2013-02-14 15:05:00,54.8,38.0,30.04,West,269,6.0,-999.0,54,-99.99,,,0.00,weatherlink.com 1.10,2013-02-14 21:05:00,
2013-02-14 15:20:00,54.8,37.0,30.04,SSW,211,1.0,-999.0,52,-99.99,,,0.00,weatherlink.com 1.10,2013-02-14 21:20:00,
2013-02-14 15:35:00,54.9,38.0,30.04,West,262,4.0,-999.0,53,-99.99,,,0.00,weatherlink.com 1.10,2013-02-14 21:35:00,
2013-02-14 15:50:00,54.8,37.0,30.03,WNW,299,1.0,-999.0,52,-99.99,,,0.00,weatherlink.com 1.10,2013-02-14 21:50:00,
2013-02-14 16:05:00,54.9,37.0,30.03,WNW,286,0.0,-999.0,51,-99.99,,,0.00,weatherlink.com 1.10,2013-02-14 22:05:00,
2013-02-14 16:20:00,54.8,37.0,30.03,WSW,255,0.0,-999.0,51,-99.99,,,0.00,weatherlink.com 1.10,2013-02-14 22:20:00,
2013-02-14 16:35:00,54.7,37.0,30.03,WSW,255,0.0,-999.0,52,-99.99,,,0.00,weatherlink.com 1.10,2013-02-14 22:35:00,
2013-02-14 16:50:00,54.3,37.0,30.03,WSW,255,0.0,-999.0,53,-99.99,,,0.00,weatherlink.com 1.10,2013-02-14 22:50:00,
2013-02-14 17:05:00,53.7,39.0,30.03,WSW,255,0.0,-999.0,57,-99.99,,,0.00,weatherlink.com 1.10,2013-02-14 23:05:00,
2013-02-14 17:20:00,52.7,39.0,30.04,WSW,255,0.0,-999.0,59,-99.99,,,0.00,weatherlink.com 1.10,2013-02-14 23:20:00,
2013-02-14 17:35:00,51.3,39.0,30.04,WSW,256,0.0,-999.0,62,-99.99,,,0.00,weatherlink.com 1.10,2013-02-14 23:35:00,
2013-02-14 17:50:00,49.7,39.0,30.05,WSW,256,0.0,-999.0,66,-99.99,,,0.00,weatherlink.com 1.10,2013-02-14 23:50:00,
2013-02-14 18:05:00,48.5,38.0,30.05,WSW,256,1.0,-999.0,67,-99.99,,,0.00,weatherlink.com 1.10,2013-02-15 00:05:00,
2013-02-14 18:20:00,47.6,39.0,30.06,WSW,256,0.0,-999.0,71,-99.99,,,0.00,weatherlink.com 1.10,2013-02-15 00:20:00,
2013-02-14 18:35:00,46.5,39.0,30.06,WSW,256,0.0,-999.0,74,-99.99,,,0.00,weatherlink.com 1.10,2013-02-15 00:35:00,
2013-02-14 18:50:00,45.6,39.0,30.06,WSW,254,3.0,-999.0,77,-99.99,,,0.00,weatherlink.com 1.10,2013-02-15 00:50:00,
2013-02-14 19:05:00,44.7,38.0,30.06,WSW,252,0.0,-999.0,78,-99.99,,,0.00,weatherlink.com 1.10,2013-02-15 01:05:00,
2013-02-14 19:20:00,44.0,39.0,30.07,WSW,252,0.0,-999.0,81,-99.99,,,0.00,weatherlink.com 1.10,2013-02-15 01:20:00,
2013-02-14 19:35:00,43.6,37.0,30.06,WSW,246,0.0,-999.0,78,-99.99,,,0.00,weatherlink.com 1.10,2013-02-15 01:35:00,
2013-02-14 19:50:00,43.8,38.0,30.06,SSW,192,1.0,-999.0,79,-99.99,,,0.00,weatherlink.com 1.10,2013-02-15 01:50:00,
2013-02-14 20:05:00,43.2,38.0,30.06,SSW,192,0.0,-999.0,82,-99.99,,,0.00,weatherlink.com 1.10,2013-02-15 02:05:00,
2013-02-14 20:20:00,42.0,38.0,30.07,SSW,192,0.0,-999.0,85,-99.99,,,0.00,weatherlink.com 1.10,2013-02-15 02:20:00,
2013-02-14 20:35:00,41.2,37.0,30.07,SSW,192,0.0,-999.0,86,-99.99,,,0.00,weatherlink.com 1.10,2013-02-15 02:35:00,
2013-02-14 20:50:00,40.1,37.0,30.07,SSW,192,0.0,-999.0,87,-99.99,,,0.00,weatherlink.com 1.10,2013-02-15 02:50:00,
2013-02-14 21:05:00,39.5,37.0,30.07,SSW,192,0.0,-999.0,90,-99.99,,,0.00,weatherlink.com 1.10,2013-02-15 03:05:00,
2013-02-14 21:20:00,39.0,37.0,30.08,SSW,192,0.0,-999.0,91,-99.99,,,0.00,weatherlink.com 1.10,2013-02-15 03:20:00,
2013-02-14 21:35:00,38.7,36.0,30.08,SSW,192,2.0,-999.0,91,-99.99,,,0.00,weatherlink.com 1.10,2013-02-15 03:35:00,
2013-02-14 21:50:00,38.5,36.0,30.08,WSW,249,0.0,-999.0,91,-99.99,,,0.00,weatherlink.com 1.10,2013-02-15 03:50:00,
2013-02-14 22:05:00,38.0,36.0,30.08,SW,229,0.0,-999.0,92,-99.99,,,0.00,weatherlink.com 1.10,2013-02-15 04:05:00,
2013-02-14 22:20:00,37.7,36.0,30.07,SW,229,0.0,-999.0,92,-99.99,,,0.00,weatherlink.com 1.10,2013-02-15 04:20:00,
2013-02-14 22:35:00,37.2,35.0,30.08,SW,229,0.0,-999.0,91,-99.99,,,0.00,weatherlink.com 1.10,2013-02-15 04:35:00,
2013-02-14 22:50:00,36.4,34.0,30.08,SW,229,0.0,-999.0,91,-99.99,,,0.00,weatherlink.com 1.10,2013-02-15 04:50:00,
2013-02-14 23:05:00,35.8,34.0,30.08,SW,229,0.0,-999.0,92,-99.99,,,0.00,weatherlink.com 1.10,2013-02-15 05:05:00,
2013-02-14 23:20:00,35.2,33.0,30.08,SW,229,0.0,-999.0,92,-99.99,,,0.00,weatherlink.com 1.10,2013-02-15 05:20:00,
2013-02-14 23:35:00,34.8,33.0,30.08,SW,229,0.0,-999.0,93,-99.99,,,0.00,weatherlink.com 1.10,2013-02-15 05:35:00,
2013-02-14 23:50:00,34.3,33.0,30.07,SW,229,0.0,-999.0,93,-99.99,,,0.00,weatherlink.com 1.10,2013-02-15 05:50:00,